Change the Weather History Date:

Saturday, November 23, 2013

  Actual Average (KBMQ) Record (KBMQ)
Temperature  
Mean Temperature 36 °F -  
Max Temperature 39 °F 64 °F 82 °F (2005)
Min Temperature 33 °F 44 °F 33 °F (2013)
Degree Days  
Heating Degree Days 29    
Moisture  
Dew Point 33 °F    
Average Humidity 88    
Maximum Humidity 93    
Minimum Humidity 81    
Precipitation  
Precipitation 0.03 in - - ()
Sea Level Pressure  
Sea Level Pressure 30.49 in    
Wind  
Wind Speed 10 mph (North)    
Max Wind Speed 15 mph    
Max Gust Speed 21 mph    
Visibility 9 miles    
Events Rain    
Averages and records for this station are not official NWS values.
T = Trace of Precipitation, MM = Missing Value Source: NWS Daily Summary

Daily Weather History Graph

Daily Weather History Graph

Search for Another Location

Airport or City:

Trip Planner

Search our weather history database for the weather conditions in past years. The results will help you decide how hot, cold, wet, or windy it might be!

Date:

Astronomy

Nov. 23, 2013 Rise Set
Actual Time 7:08 AM CST 5:33 PM CST
Civil Twilight 6:42 AM CST 5:59 PM CST
Nautical Twilight 6:12 AM CST 6:29 PM CST
Astronomical Twilight 5:43 AM CST 6:58 PM CST
Moon 10:54 PM CST (11/23) 11:33 AM CST (11/23)
Length of Visible Light 11h 17m
Length of Day
10h 25m
Waning Gibbous, 69% of the Moon is Illuminated
Nov 23
Waning Gibbous
Nov 25
Last Quarter
Dec 2
New
Dec 9
First Quarter
Dec 17
Full

Hourly Weather History & Observations

Time (CST) Temp. Windchill Dew Point Humidity Pressure Visibility Wind Dir Wind Speed Gust Speed Precip Events Conditions
12:15 AM 33.8 °F 25.8 °F 32.0 °F 93% 30.46 in 4.0 mi North 10.4 mph - N/A   Overcast
12:35 AM 33.8 °F 25.3 °F 32.0 °F 93% 30.46 in 7.0 mi North 11.5 mph - 0.02 in   Overcast
12:55 AM 33.8 °F 26.4 °F 32.0 °F 93% 30.46 in 10.0 mi North 9.2 mph - 0.03 in   Overcast
1:15 AM 35.6 °F 27.5 °F 32.0 °F 87% 30.46 in 10.0 mi North 11.5 mph - N/A   Overcast
1:35 AM 33.8 °F 24.8 °F 32.0 °F 93% 30.46 in 10.0 mi North 12.7 mph - N/A   Overcast
1:55 AM 33.8 °F 25.8 °F 32.0 °F 93% 30.46 in 10.0 mi North 10.4 mph - N/A   Overcast
2:15 AM 35.6 °F 28.6 °F 32.0 °F 87% 30.46 in 10.0 mi North 9.2 mph - N/A   Overcast
2:35 AM 33.8 °F 25.3 °F 32.0 °F 93% 30.46 in 10.0 mi North 11.5 mph - N/A   Overcast
2:55 AM 35.6 °F 29.2 °F 32.0 °F 87% 30.46 in 10.0 mi NNW 8.1 mph - N/A   Overcast
3:15 AM 35.6 °F 28.6 °F 32.0 °F 87% 30.46 in 10.0 mi North 9.2 mph - N/A   Overcast
3:35 AM 35.6 °F 27.1 °F 32.0 °F 87% 30.46 in 10.0 mi North 12.7 mph 18.4 mph N/A   Overcast
3:55 AM 35.6 °F 28.0 °F 32.0 °F 87% 30.46 in 10.0 mi North 10.4 mph - N/A   Overcast
4:15 AM 33.8 °F 25.3 °F 32.0 °F 93% 30.46 in 10.0 mi North 11.5 mph 16.1 mph N/A   Overcast
4:35 AM 33.8 °F 24.8 °F 32.0 °F 93% 30.46 in 10.0 mi North 12.7 mph 20.7 mph N/A Rain Light Rain
4:55 AM 35.6 °F 28.0 °F 32.0 °F 87% 30.46 in 10.0 mi North 10.4 mph - N/A   Overcast
5:15 AM 33.8 °F 24.8 °F 32.0 °F 93% 30.46 in 10.0 mi North 12.7 mph 19.6 mph N/A   Overcast
5:35 AM 33.8 °F 23.9 °F 32.0 °F 93% 30.47 in 10.0 mi North 15.0 mph - N/A   Overcast
5:55 AM 33.8 °F 25.8 °F 32.0 °F 93% 30.48 in 10.0 mi North 10.4 mph - N/A   Overcast
6:15 AM 33.8 °F 24.3 °F 32.0 °F 93% 30.48 in 10.0 mi North 13.8 mph 17.3 mph N/A   Overcast
6:35 AM 35.6 °F 27.5 °F 32.0 °F 87% 30.49 in 10.0 mi North 11.5 mph - N/A   Overcast
6:55 AM 35.6 °F 28.0 °F 32.0 °F 87% 30.49 in 10.0 mi North 10.4 mph - N/A   Overcast
7:15 AM 33.8 °F 25.8 °F 32.0 °F 93% 30.50 in 10.0 mi North 10.4 mph 19.6 mph N/A   Overcast
7:35 AM 33.8 °F 26.4 °F 32.0 °F 93% 30.52 in 10.0 mi North 9.2 mph - N/A   Overcast
7:55 AM 33.8 °F 24.8 °F 32.0 °F 93% 30.52 in 4.0 mi North 12.7 mph - N/A   Overcast
8:15 AM 33.8 °F 24.8 °F 32.0 °F 93% 30.53 in 10.0 mi North 12.7 mph 19.6 mph N/A   Overcast
8:35 AM 35.6 °F 27.5 °F 32.0 °F 87% 30.53 in 10.0 mi North 11.5 mph 17.3 mph N/A   Overcast
8:55 AM 35.6 °F 28.0 °F 32.0 °F 87% 30.54 in 10.0 mi North 10.4 mph 18.4 mph N/A   Overcast
9:15 AM 35.6 °F 26.2 °F 32.0 °F 87% 30.54 in 10.0 mi North 15.0 mph - N/A   Overcast
9:35 AM 35.6 °F 28.6 °F 32.0 °F 87% 30.53 in 10.0 mi North 9.2 mph - N/A   Overcast
9:55 AM 35.6 °F 29.2 °F 32.0 °F 87% 30.54 in 10.0 mi North 8.1 mph - N/A   Overcast
10:15 AM 35.6 °F 27.5 °F 32.0 °F 87% 30.54 in 10.0 mi North 11.5 mph - N/A   Overcast
10:35 AM 35.6 °F 27.1 °F 32.0 °F 87% 30.54 in 10.0 mi North 12.7 mph - N/A   Overcast
10:55 AM 37.4 °F 29.8 °F 32.0 °F 81% 30.53 in 10.0 mi North 11.5 mph - N/A   Overcast
11:15 AM 37.4 °F 29.3 °F 32.0 °F 81% 30.54 in 10.0 mi North 12.7 mph - N/A   Overcast
11:35 AM 37.4 °F 29.3 °F 32.0 °F 81% 30.53 in 10.0 mi North 12.7 mph - N/A   Overcast
11:55 AM 37.4 °F 29.8 °F 32.0 °F 81% 30.52 in 10.0 mi North 11.5 mph - N/A   Overcast
12:15 PM 37.4 °F 29.8 °F 33.8 °F 87% 30.51 in 10.0 mi North 11.5 mph 16.1 mph N/A   Overcast
12:35 PM 37.4 °F 29.8 °F 32.0 °F 81% 30.51 in 10.0 mi North 11.5 mph 16.1 mph N/A   Overcast
12:55 PM 37.4 °F 29.8 °F 33.8 °F 87% 30.50 in 10.0 mi North 11.5 mph - N/A   Overcast
1:15 PM 37.4 °F 29.3 °F 33.8 °F 87% 30.49 in 10.0 mi North 12.7 mph 16.1 mph N/A   Overcast
1:35 PM 37.4 °F 29.3 °F 33.8 °F 87% 30.48 in 10.0 mi North 12.7 mph 17.3 mph N/A   Overcast
1:55 PM 37.4 °F 30.3 °F 33.8 °F 87% 30.46 in 10.0 mi North 10.4 mph 16.1 mph N/A   Overcast
2:15 PM 37.4 °F 29.8 °F 33.8 °F 87% 30.46 in 10.0 mi North 11.5 mph 16.1 mph N/A   Overcast
2:35 PM 37.4 °F 30.3 °F 33.8 °F 87% 30.47 in 10.0 mi NNE 10.4 mph 18.4 mph N/A   Overcast
2:55 PM 37.4 °F 29.8 °F 33.8 °F 87% 30.46 in 10.0 mi NNE 11.5 mph 18.4 mph N/A   Overcast
3:15 PM 37.4 °F 29.3 °F 33.8 °F 87% 30.46 in 10.0 mi North 12.7 mph - N/A   Overcast
3:35 PM 37.4 °F 30.3 °F 33.8 °F 87% 30.46 in 10.0 mi North 10.4 mph - N/A   Overcast
3:55 PM 37.4 °F 30.8 °F 33.8 °F 87% 30.46 in 7.0 mi North 9.2 mph - N/A   Overcast
4:15 PM 37.4 °F 30.3 °F 33.8 °F 87% 30.47 in 4.0 mi NNE 10.4 mph 16.1 mph N/A   Overcast
4:35 PM 37.4 °F 30.3 °F 33.8 °F 87% 30.47 in 3.0 mi North 10.4 mph - N/A   Overcast
4:55 PM 37.4 °F 31.4 °F 33.8 °F 87% 30.47 in 3.0 mi NNE 8.1 mph - N/A   Overcast
5:15 PM 37.4 °F 32.8 °F 33.8 °F 87% 30.47 in 3.0 mi NNE 5.8 mph - N/A   Overcast
5:35 PM 37.4 °F 29.8 °F 33.8 °F 87% 30.46 in 3.0 mi North 11.5 mph - N/A   Overcast
5:55 PM 37.4 °F 31.4 °F 33.8 °F 87% 30.48 in 4.0 mi NNE 8.1 mph - N/A   Overcast
6:15 PM 37.4 °F 32.1 °F 35.6 °F 93% 30.48 in 3.0 mi North 6.9 mph - N/A   Overcast
6:35 PM 37.4 °F 33.8 °F 35.6 °F 93% 30.49 in 3.0 mi NNE 4.6 mph - N/A   Overcast
6:55 PM 37.4 °F 34.9 °F 35.6 °F 93% 30.48 in 2.5 mi NNE 3.5 mph - N/A   Overcast
7:15 PM 37.4 °F 33.8 °F 35.6 °F 93% 30.49 in 3.0 mi NNE 4.6 mph - N/A   Overcast
7:35 PM 37.4 °F 33.8 °F 35.6 °F 93% 30.49 in 3.0 mi NNE 4.6 mph - N/A   Overcast
7:55 PM 37.4 °F 33.8 °F 35.6 °F 93% 30.50 in 4.0 mi NNE 4.6 mph - N/A   Overcast
8:15 PM 37.4 °F 32.8 °F 35.6 °F 93% 30.51 in 10.0 mi North 5.8 mph - N/A   Overcast
8:35 PM 39.2 °F 35.0 °F 35.6 °F 87% 30.51 in 10.0 mi NNE 5.8 mph - N/A   Overcast
8:55 PM 39.2 °F 34.2 °F 35.6 °F 87% 30.53 in 10.0 mi NNE 6.9 mph - N/A   Overcast
9:15 PM 39.2 °F 34.2 °F 35.6 °F 87% 30.52 in 10.0 mi NNE 6.9 mph - N/A   Overcast
9:35 PM 39.2 °F 34.2 °F 35.6 °F 87% 30.51 in 10.0 mi NE 6.9 mph - N/A   Overcast
9:55 PM 39.2 °F 33.6 °F 35.6 °F 87% 30.51 in 10.0 mi NE 8.1 mph - N/A   Overcast
10:15 PM 39.2 °F 35.0 °F 35.6 °F 87% 30.51 in 10.0 mi NE 5.8 mph - N/A   Overcast
10:35 PM 39.2 °F 34.2 °F 33.8 °F 81% 30.51 in 10.0 mi NNE 6.9 mph - N/A   Overcast
10:55 PM 39.2 °F 35.0 °F 33.8 °F 81% 30.52 in 10.0 mi NNE 5.8 mph - N/A   Overcast
11:15 PM 39.2 °F 33.0 °F 33.8 °F 81% 30.50 in 10.0 mi NE 9.2 mph - N/A   Overcast
11:35 PM 39.2 °F 34.2 °F 33.8 °F 81% 30.50 in 10.0 mi NE 6.9 mph - N/A   Overcast
11:55 PM 39.2 °F 35.0 °F 33.8 °F 81% 30.51 in 10.0 mi NNE 5.8 mph - N/A   Overcast